Tracking 19709 objects as of 17-Jun-2019
HD Live streaming from Space Station
objects crossing your sky now

SL-14 DEB

Track SL-14 DEB now!
10-day predictions


NORAD ID: 35525
Int'l Code: 1987-068CU
Perigee: 947.1 km
Apogee: 976.3 km
Inclination: 82.5 °
Period: 104.1 minutes
Semi major axis: 7332 km
RCS: 0.0106 m2 (small)
Launch date: August 18, 1987
Source: Commonwealth of Independent States (former USSR) (CIS)
Launch site: PLESETSK MISSILE AND SPACE COMPLEX (PKMTR)

Note: This is SATELLITE DEBRIS
aabbcc
Your satellite tracking list
Your tracking list is empty




NASA's NSSDC Master Catalog

Two Line Element Set (TLE):
1 35525U 87068CU  19164.77775786 +.00000081 +00000-0 +61151-4 0  9991
2 35525 082.5452 187.4268 0019913 209.3479 273.6253 13.82637398810457
Source of the keplerian elements: AFSPC